CAPE
3 217 1125 775 1119 1085 1264 1249 1354 1143 1205 1354 1277 1207 1235 1271 1297 1329 1302 1379 1435 1379 1283 1220 1252 1273 1212 1499 1482 1304 1349 1518 1281 1468 1567 1854 1803 2376 2538 2338 2560 2337 2564
45 506 1536 1026 1231 1368 1375 1424 1523 1298 1140 1266 1317 1187 1187 1284 1476 1293 1354 1457 1540 1278 1277 1244 1201 1282 1375 1111 1128 1022 1018 1500 1654 1219 1262 1349 1457 1905 2517 2131 2242 2394 2518
266 858 1199 1783 1384 1241 1351 1478 1455 1635 1765 1396 1418 1571 1475 1627 1370 1327 1270 1165 1035 1006 889 692 934 1243 1323 1477 1474 993 804 1256 1346 1608 1675 908 1118 1307 1911 2023 2025 2384 2308
547 902 1256 2129 1735 1503 1062 1465 1519 1646 1695 1670 1672 1648 1463 1494 1579 1655 1491 1554 1449 1420 1386 1331 812 559 1024 1074 1188 1493 1340 1330 1355 1529 527 362 804 1556 1274 1626 2081 2088 2311
598 830 1107 1826 1763 1102 1480 1779 1554 1719 1505 1321 1547 1430 1322 1100 970 938 982 1045 979 902 961 1126 1288 1346 700 664 974 1182 1151 1023 841 1241 59 0 285 805 1799 1661 1946 2361 2540
484 842 1651 1465 1391 1562 1600 1277 1537 1496 1224 661 524 670 825 839 815 710 567 480 715 691 629 828 1250 1551 1411 1288 909 719 657 724 933 483 320 0 34 116 1934 1917 2168 2386 2511
566 856 1329 1964 1661 1855 1540 1446 843 622 740 850 826 699 620 655 680 668 636 723 790 781 915 1221 1367 1344 1419 1520 1438 1415 1428 1187 659 444 342 269 341 566 2279 1967 2578 2561 2882
758 961 1310 1912 1718 1623 941 782 1171 1250 992 843 690 673 603 555 599 718 794 890 1017 1176 1422 1689 1701 1608 1514 1433 1556 1679 1552 1504 1184 1086 1020 779 689 1554 2076 2526 2898 2816 3170
891 962 975 1077 1309 986 1237 1494 1254 867 701 692 770 793 921 1069 1151 1201 1191 1229 1325 1343 1494 1545 1598 1577 1590 1607 1638 2222 1914 2014 1502 1177 1045 1060 1416 2142 2287 3108 3351 2917 2852
676 619 717 338 707 874 1082 1338 906 771 822 874 941 1163 1442 1638 1759 1695 2300 2227 1375 1401 1454 1472 1559 1734 2375 2159 1781 1847 1865 1946 1693 1470 1377 1316 1818 2133 2219 2301 3109 3244 3141
501 557 601 345 719 752 519 513 1155 982 1034 1203 1306 1730 2325 1321 1065 1266 1560 2189 2093 2085 2135 2045 2312 3082 3115 2534 2257 2274 2205 1582 1455 1413 1031 1493 2365 2271 2331 2756 2975 3053 3145
315 520 374 269 411 422 428 221 363 298 557 580 799 816 969 854 1012 1304 1128 1042 2172 2745 2891 2686 3020 3205 2782 2089 1910 2422 2109 2037 1688 1083 584 1617 2740 2751 2711 3015 3266 3137 2780
283 252 188 85 86 110 61 0 1 15 49 215 297 525 79 995 1226 519 298 445 662 723 29 334 1340 1402 716 1351 1153 504 934 1416 1700 1282 882 1984 2969 2925 3127 2569 2911 2816 2602
91 120 86 6 37 19 0 0 0 0 129 486 621 27 380 692 521 184 0 0 443 818 510 378 795 1055 852 754 957 726 382 223 533 1444 1201 2229 2691 2681 2689 2476 1599 1039 1002
1 0 3 0 0 0 0 66 46 202 274 278 500 418 502 24 76 13 0 0 0 250 591 883 1041 1107 1090 1007 946 781 743 583 563 1255 1070 2041 2728 2335 1922 770 972 1227 1212
0 0 0 3 160 55 136 335 856 423 250 340 450 899 411 82 146 0 87 286 510 861 844 802 816 746 958 848 953 1037 961 1034 1083 1002 918 1492 2521 2057 1667 1200 1492 1643 1562
0 0 0 71 164 685 769 711 577 392 57 510 513 818 474 221 0 93 660 809 952 858 927 1088 742 444 214 46 19 45 1081 1330 962 697 682 967 1678 1966 1977 1509 1480 1445 1472
0 0 0 216 258 466 800 943 827 596 94 140 434 546 858 373 0 436 1023 1139 971 472 578 670 412 417 57 3 0 11 208 687 512 378 406 489 758 964 1464 1478 1304 1142 1256
0 0 0 161 203 375 652 838 1239 890 930 491 431 618 629 579 407 710 737 939 829 822 910 722 640 702 29 7 23 26 16 109 165 287 278 222 285 453 579 905 680 676 633
0 0 0 47 113 215 467 609 911 956 919 562 606 663 614 663 809 410 401 669 1095 1046 1024 637 447 340 48 8 0 0 0 106 157 206 184 63 47 16 115 261 202 161 534
0 0 0 4 24 99 430 688 513 714 233 40 301 844 600 533 0 263 427 0 698 676 1309 861 993 345 335 8 0 0 0 215 195 129 55 15 9 0 0 83 0 4 272
0 0 0 0 19 107 431 753 839 759 416 714 593 580 154 194 861 565 62 2 227 1259 754 935 881 172 120 43 0 0 0 1 15 146 62 33 9 3 23 32 4 1 33
0 0 0 0 0 135 197 480 479 400 133 609 627 345 284 390 682 434 89 27 286 1381 970 913 834 337 169 153 0 0 0 8 0 0 0 0 20 37 37 96 1 0 0
0 0 0 0 38 182 221 438 360 223 163 435 244 440 471 291 395 807 240 323 324 1255 1159 1148 631 906 203 227 38 0 0 0 0 0 0 0 0 11 4 18 3 1 2
0 0 0 0 270 280 157 290 258 267 281 99 251 247 703 360 717 587 671 710 1324 1029 1131 1105 1314 656 689 297 362 54 0 0 0 0 0 0 0 0 0 0 0 1 8
0 0 0 0 207 280 88 90 181 222 136 49 18 25 156 413 233 64 436 673 721 1624 1420 1481 1270 1006 705 323 475 209 0 0 25 0 0 0 0 0 0 1 1 0 7
CIN
-38 -56 -0 -0 -0 -0 -0 -0 -0 -0 -0 -0 -0 -0 -0 -0 -0 -0 -0 -0 -0 -0 -0 -2 -3 -2 -2 -0 -2 -6 -6 -14 -14 -11 -16 -10 -17 -0 -0 -0 -0 -0 -0
-169 -16 -0 -0 -0 -0 -0 -0 -0 -0 -0 -0 -0 -0 -0 -0 -0 -0 -0 -0 -0 -0 -0 -0 -5 -4 -0 -6 -5 -10 -11 -9 -8 -28 -29 -25 -25 -9 -0 -0 -1 -0 -0
-98 -4 -0 -0 -0 -0 -0 -0 -0 -0 -0 -0 -0 -0 -0 -0 -0 -0 -0 -0 -9 -16 -20 -29 -15 -0 -0 -0 -0 -18 -29 -14 -17 -5 -12 -69 -54 -33 -6 -4 -3 -3 -2
-75 -15 -1 -0 -0 -0 -2 -0 -0 -0 -0 -0 -0 -0 -0 -0 -0 -0 -0 -0 -0 -0 -0 -2 -28 -42 -10 -10 -8 -3 -10 -14 -14 -10 -90 -123 -70 -17 -26 -10 -7 -6 -6
-72 -36 -5 -0 -0 -0 -0 -0 -0 -0 -0 -0 -0 -0 -0 -0 -0 -0 -0 -0 -6 -18 -7 -0 -0 -0 -30 -44 -27 -19 -24 -30 -39 -15 -109 -0 -164 -68 -8 -11 -4 -3 -3
-106 -49 -1 -0 -0 -0 -0 -0 -0 -0 -0 -31 -57 -46 -27 -22 -28 -28 -35 -36 -12 -10 -11 -0 -0 -0 -0 -0 -14 -20 -23 -29 -19 -68 -120 -0 -212 -165 -1 -2 -6 -1 -5
-101 -39 -8 -0 -0 -0 -0 -0 -9 -30 -20 -21 -31 -41 -39 -39 -47 -58 -57 -36 -26 -30 -15 -0 -0 -0 -0 -0 -0 -0 -0 -8 -57 -104 -133 -158 -143 -106 -4 -2 -0 -0 -1
-75 -50 -20 -0 -0 -0 -10 -16 -1 -0 -3 -21 -35 -32 -42 -46 -43 -51 -57 -49 -28 -10 -2 -0 -0 -0 -0 -2 -1 -3 -15 -17 -40 -67 -84 -96 -124 -48 -14 -3 -0 -0 -0
-52 -71 -67 -39 -18 -21 -7 -0 -7 -21 -44 -50 -39 -36 -29 -29 -29 -23 -21 -24 -25 -28 -19 -11 -6 -12 -15 -10 -4 -0 -3 -5 -31 -81 -88 -93 -85 -47 -16 -1 -0 -1 -2
-88 -103 -95 -139 -72 -43 -27 -13 -33 -38 -45 -38 -40 -30 -22 -17 -13 -14 -2 -9 -39 -33 -32 -32 -24 -12 -1 -5 -14 -6 -5 -8 -33 -64 -75 -94 -63 -43 -23 -14 -2 -0 -0
-81 -90 -111 -150 -90 -84 -114 -112 -38 -48 -46 -38 -36 -27 -15 -52 -67 -60 -52 -24 -27 -25 -23 -25 -17 -0 -0 -2 -10 -5 -2 -45 -73 -90 -128 -109 -52 -32 -26 -11 -4 -4 -2
-132 -111 -169 -206 -150 -154 -145 -232 -152 -158 -113 -127 -129 -133 -120 -138 -129 -97 -105 -103 -36 -22 -15 -18 -10 -5 -3 -30 -43 -18 -31 -49 -80 -143 -212 -103 -40 -19 -10 -4 -2 -1 -2
-199 -241 -269 -337 -300 -313 -349 -0 -32 -348 -277 -200 -197 -168 -326 -152 -160 -204 -237 -216 -186 -169 -296 -244 -106 -79 -122 -82 -109 -170 -148 -108 -96 -132 -154 -72 -23 -17 -4 -11 -3 -1 -0
-322 -319 -326 -441 -390 -432 -0 -0 -0 -0 -213 -159 -152 -356 -216 -194 -217 -276 -0 -0 -265 -189 -230 -263 -173 -146 -148 -148 -134 -146 -208 -297 -219 -121 -146 -47 -27 -14 -3 -7 -39 -62 -64
-115 -0 -271 -0 -0 -0 -0 -260 -315 -216 -189 -156 -168 -198 -216 -330 -271 -140 -0 -0 -0 -336 -242 -207 -189 -178 -163 -151 -144 -169 -176 -223 -217 -148 -164 -52 -12 -17 -10 -59 -69 -57 -54
-0 -0 -0 -61 -189 -295 -146 -155 -134 -168 -181 -189 -219 -157 -225 -318 -255 -0 -342 -275 -260 -249 -251 -249 -229 -214 -162 -179 -167 -158 -164 -175 -174 -166 -185 -92 -25 -17 -13 -38 -27 -18 -23
-0 -0 -0 -248 -182 -108 -108 -121 -159 -175 -213 -177 -202 -183 -239 -279 -0 -359 -222 -208 -215 -238 -219 -205 -213 -273 -273 -370 -404 -419 -165 -166 -183 -218 -225 -164 -64 -21 -7 -24 -25 -24 -7
-0 -0 -0 -139 -149 -110 -104 -117 -136 -156 -192 -232 -196 -191 -189 -255 -0 -243 -183 -154 -187 -246 -223 -190 -214 -180 -288 -110 -0 -474 -327 -208 -235 -299 -265 -207 -159 -97 -26 -18 -28 -26 -10
-0 -0 -0 -210 -191 -137 -119 -125 -116 -137 -148 -184 -180 -188 -187 -191 -226 -206 -196 -158 -185 -199 -179 -178 -167 -158 -265 -126 -363 -342 -414 -346 -348 -294 -288 -270 -219 -166 -118 -33 -44 -28 -27
-0 -0 -0 -300 -227 -192 -146 -135 -127 -132 -159 -193 -177 -163 -140 -170 -154 -226 -225 -178 -147 -140 -128 -154 -151 -186 -255 -160 -0 -0 -0 -335 -355 -328 -307 -311 -324 -245 -202 -116 -102 -112 -26
-0 -0 -0 -94 -335 -266 -147 -104 -112 -90 -171 -279 -211 -152 -123 -145 -0 -219 -199 -0 -186 -157 -108 -131 -137 -180 -154 -108 -0 -0 -0 -252 -283 -316 -306 -313 -324 -0 -0 -152 -0 -84 -76
-0 -0 -0 -0 -315 -269 -182 -129 -116 -121 -154 -183 -204 -139 -216 -173 -150 -160 -237 -44 -190 -131 -156 -103 -105 -190 -270 -99 -0 -0 -0 -51 -359 -196 -224 -160 -220 -48 -169 -142 -50 -88 -148
-0 -0 -0 -0 -0 -262 -239 -158 -152 -165 -191 -123 -112 -125 -145 -170 -169 -168 -217 -239 -193 -126 -115 -109 -105 -165 -167 -210 -0 -0 -0 -68 -0 -0 -0 -0 -161 -161 -175 -115 -0 -0 -0
-0 -0 -0 -0 -330 -268 -252 -164 -134 -140 -120 -119 -162 -153 -149 -165 -171 -157 -188 -198 -215 -138 -111 -100 -125 -106 -189 -90 -161 -0 -0 -0 -0 -0 -0 -0 -0 -128 -0 -223 -41 -0 -123
-0 -0 -0 -0 -265 -247 -280 -219 -200 -177 -200 -239 -201 -189 -188 -186 -152 -134 -144 -157 -134 -174 -136 -107 -91 -110 -118 -136 -97 -154 -0 -0 -0 -0 -0 -0 -0 -0 -0 -0 -0 -0 -161
-0 -0 -0 -0 -242 -276 -321 -306 -228 -196 -214 -279 -266 -210 -172 -178 -185 -210 -187 -177 -167 -125 -139 -93 -108 -112 -119 -148 -118 -145 -0 -0 -124 -0 -0 -0 -0 -0 -0 -0 -0 -0 -156
Wind_Speed
4 5 10 11 9 10 10 11 11 12 11 11 11 10 10 10 10 9 10 11 11 11 10 9 8 7 6 6 6 5 6 5 7 8 8 8 9 9 10 11 11 8 13
9 6 11 11 9 11 9 9 11 11 11 11 10 9 9 9 9 10 9 9 9 9 9 8 7 6 6 6 5 4 6 6 5 5 6 6 6 7 7 10 11 8 11
10 7 8 11 11 11 10 10 11 10 11 12 9 10 9 9 9 9 9 8 7 7 7 6 5 4 4 4 4 4 4 3 1 1 5 3 2 3 4 8 9 11 10
10 6 6 10 12 11 10 11 10 10 10 10 9 8 8 7 6 7 7 6 5 6 5 4 5 4 3 3 3 3 3 3 2 1 2 2 3 2 2 6 7 8 10
8 6 7 12 14 12 11 9 9 10 10 8 7 6 6 5 4 4 4 3 2 2 3 4 4 4 4 5 5 6 6 5 4 3 1 3 2 3 6 6 7 9 9
7 6 10 13 13 12 12 10 9 9 9 8 7 7 7 7 6 5 5 4 3 4 4 4 4 5 6 6 6 6 5 5 5 2 4 3 4 5 6 6 7 9 9
8 5 8 12 12 12 11 9 9 10 9 9 9 8 7 7 7 6 6 5 6 6 6 7 7 7 7 6 7 7 7 8 6 5 5 5 5 11 10 10 10 10 11
8 6 6 12 12 11 10 10 10 9 8 8 8 7 7 6 6 6 7 6 6 7 8 9 8 8 8 9 9 9 9 10 7 6 5 4 8 11 11 11 11 11 11
6 5 5 5 8 11 11 10 10 9 8 8 8 8 7 7 7 7 7 7 8 8 9 9 10 10 10 10 11 10 10 11 6 3 5 3 8 14 14 12 13 13 12
4 4 5 5 4 4 4 10 9 8 9 8 9 8 8 7 7 7 8 9 10 9 10 10 10 11 11 11 12 11 11 12 5 4 3 4 9 12 13 12 11 12 12
5 4 4 5 4 4 5 5 8 9 9 9 7 8 5 3 4 5 7 9 11 10 12 12 11 12 12 13 12 12 12 3 5 3 3 8 9 13 13 12 12 11 11
6 6 5 5 6 5 5 5 4 5 3 4 3 4 2 3 3 4 4 7 6 7 10 9 10 11 8 3 4 9 4 5 4 4 3 9 9 13 11 9 10 10 11
9 4 7 5 5 6 5 3 2 2 2 2 4 4 3 1 2 2 2 3 2 4 3 4 4 2 4 4 4 4 4 4 4 3 5 9 9 12 11 9 8 10 11
8 9 6 6 6 6 4 3 3 3 3 3 2 2 3 1 2 3 1 3 3 2 4 4 3 5 5 5 6 5 5 4 4 4 4 8 8 9 10 8 7 8 9
7 7 8 6 6 6 6 3 3 4 4 4 3 4 3 3 3 2 1 1 4 3 4 4 4 4 5 5 6 7 8 7 6 3 2 11 10 7 7 8 7 6 6
8 7 6 7 6 6 5 4 4 1 3 3 3 5 5 4 1 3 3 1 3 3 3 4 3 4 4 3 6 8 9 7 7 6 4 5 10 9 8 8 7 8 6
7 8 8 7 6 6 5 5 2 1 2 3 3 5 5 4 4 4 3 4 4 4 5 2 3 1 1 4 5 3 6 8 5 5 4 3 7 11 10 9 9 8 7
7 10 8 7 7 6 5 3 2 2 3 4 2 3 5 6 6 3 2 2 4 2 3 2 1 2 2 3 4 4 3 3 4 6 4 3 4 4 8 10 9 9 8
11 9 8 7 8 7 4 1 1 4 4 4 3 4 5 5 4 2 2 3 2 1 2 2 1 1 0 4 5 3 3 2 4 4 5 4 4 4 3 10 11 10 10
9 8 8 6 7 5 2 1 2 3 4 4 4 3 6 5 6 5 4 3 2 3 4 3 2 2 1 1 3 5 4 3 4 2 3 3 3 1 1 4 4 5 11
7 8 8 8 7 3 2 1 2 3 3 3 4 4 5 5 6 5 3 3 2 1 2 1 1 2 1 2 1 1 4 4 4 2 3 2 3 1 4 5 3 3 4
14 10 8 8 7 5 3 3 2 2 3 3 1 3 3 5 5 5 3 3 4 2 4 1 0 2 2 1 3 1 3 2 3 2 2 2 3 3 4 5 4 5 3
13 12 11 10 8 6 6 1 1 1 2 1 1 2 4 5 5 5 4 4 3 2 4 3 3 3 2 1 1 4 1 2 2 1 4 3 1 2 1 1 1 2 1
15 12 9 10 10 8 8 4 4 3 2 1 2 2 4 5 4 5 5 5 5 3 4 3 3 3 2 1 2 3 3 3 2 3 3 2 2 2 3 2 2 3 3
14 12 9 9 8 8 8 7 6 5 3 2 2 3 3 2 3 5 6 6 6 4 5 4 5 4 2 3 3 2 0 1 2 3 2 2 2 2 2 2 1 1 2
11 11 9 9 9 7 8 7 8 7 5 2 3 3 3 2 3 4 6 6 5 5 5 5 5 6 5 3 2 3 5 4 3 3 3 3 3 1 1 1 1 0 2
Wind_Direction
195 169 163 150 142 128 118 114 116 118 118 121 119 122 120 116 111 107 103 110 116 121 117 119 119 123 127 133 147 128 105 93 89 78 74 75 82 103 118 116 115 128 128
140 161 157 148 146 131 122 118 121 124 130 123 117 125 118 114 122 121 121 118 118 116 116 113 130 149 146 151 143 126 91 62 59 100 99 75 52 56 148 121 123 132 134
136 148 149 150 140 130 132 129 125 135 133 124 132 120 128 132 128 124 116 116 112 107 106 118 132 157 139 141 130 123 112 110 154 102 107 80 63 56 99 123 131 140 152
136 130 143 148 146 145 145 137 143 134 131 125 127 125 125 123 122 112 120 128 128 126 128 145 162 171 160 161 161 159 157 168 204 221 78 51 334 152 156 143 146 155 158
125 127 152 146 152 150 153 148 144 140 125 124 124 134 141 136 131 131 136 140 151 181 175 190 206 192 193 195 197 196 198 204 217 205 224 257 206 234 190 178 164 170 161
130 138 157 149 153 155 153 157 147 134 139 151 163 174 178 177 178 183 186 185 213 257 262 253 243 229 228 220 219 223 222 227 244 246 206 221 218 261 216 199 191 183 170
139 156 148 159 161 159 159 154 159 159 162 168 179 189 195 199 197 202 209 219 229 240 252 255 254 249 242 242 239 235 231 227 215 218 224 204 211 218 220 207 198 184 186
146 147 170 160 167 165 162 173 173 169 180 187 194 204 211 219 233 237 237 233 236 244 248 252 252 253 249 250 248 237 237 243 236 221 234 225 222 217 216 207 205 197 200
145 162 158 164 173 172 177 179 182 186 196 204 210 214 221 223 226 238 245 247 246 234 232 240 245 243 244 244 248 250 242 242 245 252 258 240 246 233 216 215 210 200 193
170 182 176 177 169 167 191 196 198 203 215 220 223 224 235 239 238 232 226 223 226 238 239 235 239 244 242 244 249 249 249 249 258 263 268 270 256 227 212 214 209 204 198
199 218 200 179 168 183 213 232 217 221 227 232 243 254 273 259 234 249 254 249 239 227 241 239 242 246 242 243 246 253 257 257 247 242 242 264 227 214 211 210 214 211 210
206 213 205 189 190 200 223 223 225 237 242 260 278 290 314 286 211 217 231 253 279 237 242 250 245 255 259 228 257 255 238 234 242 240 234 247 226 211 216 228 214 220 224
192 203 198 197 197 208 229 209 212 225 256 261 266 302 283 216 183 70 349 311 279 287 294 286 289 232 228 222 231 234 246 244 250 246 239 228 202 206 216 225 223 221 231
180 201 195 198 199 220 233 225 217 228 223 253 265 192 253 254 157 171 193 291 304 290 255 242 257 256 245 224 210 219 242 242 234 234 242 230 198 220 218 207 220 234 242
192 197 205 189 199 219 227 253 231 233 217 221 168 207 197 235 205 302 196 217 258 254 259 261 250 247 241 233 228 207 219 228 244 241 243 218 216 210 180 205 207 214 222
195 193 187 195 192 185 199 216 226 182 233 249 164 188 210 222 226 246 245 304 307 299 249 254 263 264 277 257 214 219 218 211 219 193 188 211 192 181 180 184 183 181 175
196 173 179 173 191 170 182 208 203 254 252 249 176 194 191 238 295 281 359 343 322 296 299 296 316 254 278 324 289 228 225 212 198 170 164 163 164 167 177 180 173 167 154
166 175 175 182 186 182 200 188 215 247 239 265 174 224 221 191 218 255 355 320 285 336 29 48 333 7 293 296 305 308 263 224 149 165 155 157 141 156 181 176 170 163 162
176 165 184 190 191 192 204 195 278 268 264 255 249 180 209 237 232 262 232 201 214 66 28 15 359 227 322 346 319 330 295 117 129 141 158 137 152 156 149 177 170 175 181
176 178 181 185 196 191 151 46 280 283 277 275 266 261 186 199 204 198 237 108 46 36 18 13 346 317 81 335 343 14 11 88 96 149 139 118 110 116 202 211 180 198 194
177 174 190 171 203 146 146 166 243 251 283 266 260 231 192 188 194 194 191 106 106 84 272 194 242 333 330 12 66 308 51 63 83 45 72 108 135 240 298 268 171 205 231
181 192 189 193 182 192 171 203 173 205 275 281 284 222 216 213 211 185 171 192 194 192 251 248 266 264 264 38 118 58 11 348 66 109 124 140 183 180 232 243 200 205 232
192 189 189 195 197 190 191 146 56 8 334 8 324 281 256 233 215 224 188 197 229 214 225 223 207 212 242 9 74 143 105 229 340 4 57 64 335 177 171 230 233 183 237
200 193 193 193 194 193 182 180 178 181 204 261 242 271 272 238 223 237 219 211 216 219 240 219 228 236 131 256 55 32 60 137 163 289 36 46 56 103 134 138 169 173 194
194 190 193 199 197 192 182 191 182 196 197 225 269 315 269 217 228 244 235 224 216 208 227 212 233 232 208 172 166 154 312 285 34 96 268 307 21 46 41 49 86 162 106
194 194 187 188 212 198 186 195 194 203 210 204 264 284 294 291 266 272 282 243 218 208 204 212 235 236 231 218 183 186 183 179 178 136 233 235 249 223 125 119 239 162 110